,,PressureMeas_1m,,PRMeasQMR101_1,,RHStat155_1m_1,,SRMeasQMS101R_1m,,TAStat155_1m_1,,GenWind_1,,GenWind_1,
2019-01-08, 07:00:06,VALID,918.201,VALID,0.0,VALID,97.413,VALID,14.945,VALID,20.322,INVALID,360.0,VALID,0.0,
2019-01-08, 07:01:06,VALID,918.18,VALID,0.0,VALID,97.278,VALID,15.532,VALID,20.294,INVALID,360.0,VALID,0.0,
2019-01-08, 07:02:06,VALID,918.189,VALID,0.0,VALID,97.222,VALID,16.826,VALID,20.283,INVALID,360.0,VALID,0.0,
2019-01-08, 07:03:06,VALID,918.194,VALID,0.0,VALID,97.127,VALID,18.502,VALID,20.29,INVALID,360.0,VALID,0.0,
2019-01-08, 07:04:06,VALID,918.21,VALID,0.0,VALID,97.001,VALID,19.807,VALID,20.298,INVALID,360.0,VALID,0.0,
2019-01-08, 07:05:06,VALID,918.188,VALID,0.0,VALID,96.922,VALID,20.345,VALID,20.316,INVALID,360.0,VALID,0.0,
2019-01-08, 07:06:06,VALID,918.167,VALID,0.0,VALID,96.764,VALID,20.606,VALID,20.332,INVALID,360.0,VALID,0.0,
2019-01-08, 07:07:06,VALID,918.174,VALID,0.0,VALID,96.504,VALID,20.589,VALID,20.376,INVALID,360.0,VALID,0.0,
2019-01-08, 07:08:06,VALID,918.164,VALID,0.0,VALID,96.359,VALID,20.178,VALID,20.422,INVALID,360.0,VALID,0.0,
2019-01-08, 07:09:06,VALID,918.162,VALID,0.0,VALID,96.444,VALID,19.254,VALID,20.446,INVALID,360.0,VALID,0.0,
2019-01-08, 07:10:06,VALID,918.161,VALID,0.0,VALID,96.201,VALID,18.214,VALID,20.487,INVALID,360.0,VALID,0.0,
2019-01-08, 07:11:06,VALID,918.148,VALID,0.0,VALID,95.765,VALID,17.501,VALID,20.554,INVALID,360.0,VALID,0.0,
2019-01-08, 07:12:06,VALID,918.193,VALID,0.0,VALID,95.351,VALID,17.226,VALID,20.594,INVALID,360.0,VALID,0.0,
2019-01-08, 07:13:06,VALID,918.195,VALID,0.0,VALID,95.208,VALID,17.349,VALID,20.608,INVALID,360.0,VALID,0.0,
2019-01-08, 07:14:06,VALID,918.209,VALID,0.0,VALID,95.29,VALID,18.032,VALID,20.583,INVALID,360.0,VALID,0.0,
2019-01-08, 07:15:06,VALID,918.239,VALID,0.0,VALID,95.389,VALID,19.209,VALID,20.554,INVALID,360.0,VALID,0.0,
2019-01-08, 07:16:06,VALID,918.261,VALID,0.0,VALID,95.459,VALID,20.538,VALID,20.534,INVALID,360.0,VALID,0.0,
2019-01-08, 07:17:06,VALID,918.307,VALID,0.0,VALID,95.695,VALID,22.194,VALID,20.497,INVALID,360.0,VALID,0.0,
2019-01-08, 07:18:06,VALID,918.332,VALID,0.0,VALID,95.934,VALID,24.517,VALID,20.458,INVALID,360.0,VALID,0.0,
2019-01-08, 07:19:06,VALID,918.379,VALID,0.0,VALID,96.1,VALID,26.965,VALID,20.43,INVALID,360.0,VALID,0.0,
2019-01-08, 07:20:06,VALID,918.39,VALID,0.0,VALID,96.257,VALID,28.419,VALID,20.422,INVALID,360.0,VALID,0.0,
2019-01-08, 07:21:06,VALID,918.417,VALID,0.0,VALID,96.381,VALID,28.587,VALID,20.417,INVALID,360.0,VALID,0.0,
2019-01-08, 07:22:06,VALID,918.436,VALID,0.0,VALID,96.321,VALID,28.102,VALID,20.405,INVALID,360.0,VALID,0.0,
2019-01-08, 07:23:06,VALID,918.429,VALID,0.0,VALID,96.352,VALID,27.698,VALID,20.401,INVALID,360.0,VALID,0.0,
2019-01-08, 07:24:06,VALID,918.441,VALID,0.0,VALID,96.405,VALID,27.717,VALID,20.387,INVALID,360.0,VALID,0.0,
2019-01-08, 07:25:06,VALID,918.438,VALID,0.0,VALID,96.514,VALID,27.499,VALID,20.365,INVALID,360.0,VALID,0.0,
2019-01-08, 07:26:06,VALID,918.448,VALID,0.0,VALID,96.673,VALID,26.87,VALID,20.335,INVALID,360.0,VALID,0.0,
2019-01-08, 07:27:06,VALID,918.47,VALID,0.0,VALID,96.866,VALID,27.689,VALID,20.315,INVALID,360.0,VALID,0.0,
2019-01-08, 07:28:06,VALID,918.49,VALID,0.0,VALID,96.901,VALID,29.722,VALID,20.279,INVALID,360.0,VALID,0.0,
2019-01-08, 07:29:06,VALID,918.491,VALID,0.0,VALID,97.013,VALID,32.437,VALID,20.253,INVALID,360.0,VALID,0.0,
2019-01-08, 07:30:06,VALID,918.489,VALID,0.0,VALID,97.129,VALID,34.854,VALID,20.236,INVALID,360.0,VALID,0.0,
2019-01-08, 07:31:06,VALID,918.481,VALID,0.0,VALID,97.222,VALID,36.411,VALID,20.224,INVALID,360.0,VALID,0.0,
2019-01-08, 07:32:06,VALID,918.481,VALID,0.0,VALID,97.255,VALID,37.773,VALID,20.225,INVALID,360.0,VALID,0.0,
2019-01-08, 07:33:06,VALID,918.463,VALID,0.0,VALID,97.207,VALID,40.054,VALID,20.246,INVALID,360.0,VALID,0.0,
2019-01-08, 07:34:06,VALID,918.457,VALID,0.0,VALID,97.09,VALID,43.153,VALID,20.261,INVALID,360.0,VALID,0.0,
2019-01-08, 07:35:06,VALID,918.471,VALID,0.0,VALID,97.045,VALID,46.343,VALID,20.276,INVALID,360.0,VALID,0.0,
2019-01-08, 07:36:06,VALID,918.468,VALID,0.0,VALID,97.092,VALID,48.612,VALID,20.299,INVALID,360.0,VALID,0.0,
2019-01-08, 07:37:06,VALID,918.492,VALID,0.0,VALID,97.167,VALID,50.053,VALID,20.3,INVALID,360.0,VALID,0.0,
2019-01-08, 07:38:06,VALID,918.516,VALID,0.0,VALID,97.208,VALID,50.381,VALID,20.302,INVALID,360.0,VALID,0.0,
2019-01-08, 07:39:06,VALID,918.54,VALID,0.0,VALID,97.274,VALID,50.082,VALID,20.307,INVALID,360.0,VALID,0.0,
2019-01-08, 07:40:06,VALID,918.561,VALID,0.0,VALID,97.327,VALID,48.765,VALID,20.319,INVALID,360.0,VALID,0.0,
2019-01-08, 07:41:06,VALID,918.576,VALID,0.0,VALID,97.377,VALID,46.885,VALID,20.339,INVALID,360.0,VALID,0.0,
2019-01-08, 07:42:06,VALID,918.588,VALID,0.0,VALID,97.349,VALID,45.513,VALID,20.345,INVALID,360.0,VALID,0.0,
2019-01-08, 07:43:06,VALID,918.594,VALID,0.0,VALID,97.22,VALID,44.582,VALID,20.366,INVALID,360.0,VALID,0.0,
2019-01-08, 07:44:06,VALID,918.603,VALID,0.0,VALID,97.158,VALID,43.582,VALID,20.416,INVALID,360.0,VALID,0.0,
2019-01-08, 07:45:06,VALID,918.594,VALID,0.0,VALID,97.104,VALID,42.591,VALID,20.469,INVALID,360.0,VALID,0.0,
2019-01-08, 07:46:06,VALID,918.584,VALID,0.0,VALID,96.958,VALID,42.449,VALID,20.512,INVALID,360.0,VALID,0.0,
2019-01-08, 07:47:06,VALID,918.572,VALID,0.0,VALID,96.727,VALID,42.213,VALID,20.545,INVALID,360.0,VALID,0.0,
2019-01-08, 07:48:06,VALID,918.574,VALID,0.0,VALID,96.477,VALID,41.538,VALID,20.593,INVALID,360.0,VALID,0.0,
2019-01-08, 07:49:06,VALID,918.579,VALID,0.0,VALID,96.204,VALID,40.437,VALID,20.655,INVALID,360.0,VALID,0.0,
2019-01-08, 07:50:06,VALID,918.585,VALID,0.0,VALID,95.901,VALID,39.735,VALID,20.712,INVALID,360.0,VALID,0.0,
2019-01-08, 07:51:06,VALID,918.613,VALID,0.0,VALID,95.528,VALID,40.473,VALID,20.758,INVALID,360.0,VALID,0.0,
2019-01-08, 07:52:06,VALID,918.634,VALID,0.0,VALID,95.023,VALID,41.246,VALID,20.795,INVALID,360.0,VALID,0.0,
2019-01-08, 07:53:06,VALID,918.683,VALID,0.0,VALID,94.525,VALID,40.785,VALID,20.835,INVALID,360.0,VALID,0.0,
2019-01-08, 07:54:06,VALID,918.712,VALID,0.0,VALID,94.048,VALID,40.546,VALID,20.887,INVALID,360.0,VALID,0.0,
2019-01-08, 07:55:06,VALID,918.73,VALID,0.0,VALID,93.859,VALID,42.45,VALID,20.95,INVALID,360.0,VALID,0.0,
2019-01-08, 07:56:06,VALID,918.751,VALID,0.0,VALID,93.818,VALID,45.889,VALID,20.994,INVALID,360.0,VALID,0.0,
2019-01-08, 07:57:06,VALID,918.779,VALID,0.0,VALID,93.994,VALID,47.252,VALID,21.038,INVALID,360.0,VALID,0.0,
2019-01-08, 07:58:06,VALID,918.805,VALID,0.0,VALID,94.151,VALID,44.627,VALID,21.073,INVALID,360.0,VALID,0.0,
2019-01-08, 07:59:06,VALID,918.828,VALID,0.0,VALID,94.19,VALID,40.233,VALID,21.104,INVALID,360.0,VALID,0.0,
2019-01-08, 08:00:06,VALID,918.835,VALID,0.0,VALID,94.481,VALID,35.773,VALID,21.113,INVALID,360.0,VALID,0.0,
2019-01-08, 08:01:06,VALID,918.846,VALID,0.0,VALID,94.446,VALID,32.054,VALID,21.078,INVALID,360.0,VALID,0.0,
2019-01-08, 08:02:06,VALID,918.85,VALID,0.0,VALID,94.565,VALID,29.596,VALID,21.076,INVALID,360.0,VALID,0.0,
2019-01-08, 08:03:06,VALID,918.872,VALID,0.0,VALID,94.6,VALID,28.236,VALID,21.058,INVALID,360.0,VALID,0.0,
2019-01-08, 08:04:06,VALID,918.865,VALID,0.0,VALID,94.544,VALID,27.816,VALID,21.03,INVALID,360.0,VALID,0.0,
2019-01-08, 08:05:06,VALID,918.886,VALID,0.0,VALID,94.813,VALID,28.28,VALID,21.008,INVALID,360.0,VALID,0.0,
2019-01-08, 08:06:06,VALID,918.887,VALID,0.0,VALID,94.284,VALID,29.437,VALID,20.954,INVALID,360.0,VALID,0.0,
2019-01-08, 08:07:06,VALID,918.911,VALID,0.0,VALID,93.476,VALID,31.409,VALID,20.994,INVALID,360.0,VALID,0.0,
2019-01-08, 08:08:06,VALID,918.906,VALID,0.0,VALID,93.673,VALID,34.633,VALID,21.099,INVALID,360.0,VALID,0.0,
2019-01-08, 08:09:06,VALID,918.913,VALID,0.0,VALID,93.277,VALID,38.561,VALID,21.142,INVALID,360.0,VALID,0.0,
2019-01-08, 08:10:06,VALID,918.932,VALID,0.0,VALID,93.048,VALID,42.605,VALID,21.199,INVALID,360.0,VALID,0.0,
2019-01-08, 08:11:06,VALID,918.937,VALID,0.0,VALID,92.59,VALID,47.316,VALID,21.234,INVALID,360.0,VALID,0.0,
2019-01-08, 08:12:06,VALID,918.939,VALID,0.0,VALID,92.41,VALID,53.314,VALID,21.279,INVALID,360.0,VALID,0.0,
2019-01-08, 08:13:06,VALID,918.936,VALID,0.0,VALID,92.653,VALID,60.388,VALID,21.285,INVALID,360.0,VALID,0.0,
2019-01-08, 08:14:06,VALID,918.954,VALID,0.0,VALID,92.653,VALID,66.907,VALID,21.273,INVALID,360.0,VALID,0.0,
2019-01-08, 08:15:06,VALID,918.953,VALID,0.0,VALID,92.768,VALID,72.319,VALID,21.261,INVALID,360.0,VALID,0.0,
2019-01-08, 08:16:06,VALID,918.961,VALID,0.0,VALID,92.657,VALID,76.635,VALID,21.264,INVALID,360.0,VALID,0.0,
2019-01-08, 08:17:06,VALID,918.954,VALID,0.0,VALID,93.028,VALID,79.454,VALID,21.272,INVALID,360.0,VALID,0.0,
2019-01-08, 08:18:06,VALID,918.976,VALID,0.0,VALID,92.736,VALID,81.432,VALID,21.277,INVALID,360.0,VALID,0.0,
2019-01-08, 08:19:06,VALID,918.977,VALID,0.0,VALID,92.591,VALID,83.661,VALID,21.296,INVALID,360.0,VALID,0.0,
2019-01-08, 08:20:06,VALID,918.977,VALID,0.0,VALID,92.54,VALID,85.706,VALID,21.308,INVALID,360.0,VALID,0.0,
2019-01-08, 08:21:06,VALID,918.974,VALID,0.0,VALID,92.87,VALID,86.867,VALID,21.34,INVALID,360.0,VALID,0.0,
2019-01-08, 08:22:06,VALID,918.971,VALID,0.0,VALID,92.996,VALID,87.191,VALID,21.333,INVALID,360.0,VALID,0.0,
2019-01-08, 08:23:06,VALID,918.966,VALID,0.0,VALID,93.227,VALID,87.293,VALID,21.325,INVALID,360.0,VALID,0.0,
2019-01-08, 08:24:06,VALID,918.95,VALID,0.0,VALID,93.181,VALID,87.498,VALID,21.322,INVALID,360.0,VALID,0.0,
2019-01-08, 08:25:06,VALID,918.932,VALID,0.0,VALID,93.531,VALID,87.638,VALID,21.339,INVALID,360.0,VALID,0.0,
2019-01-08, 08:26:06,VALID,918.935,VALID,0.0,VALID,93.212,VALID,87.984,VALID,21.35,INVALID,360.0,VALID,0.0,
2019-01-08, 08:27:06,VALID,918.949,VALID,0.0,VALID,92.751,VALID,89.092,VALID,21.347,INVALID,360.0,VALID,0.0,
2019-01-08, 08:28:06,VALID,918.93,VALID,0.0,VALID,92.876,VALID,91.903,VALID,21.34,INVALID,360.0,VALID,0.0,
2019-01-08, 08:29:06,VALID,918.947,VALID,0.0,VALID,92.386,VALID,97.19,VALID,21.336,INVALID,360.0,VALID,0.0,
2019-01-08, 08:30:06,VALID,918.944,VALID,0.0,VALID,92.497,VALID,104.653,VALID,21.372,INVALID,360.0,VALID,0.0,
2019-01-08, 08:31:06,VALID,918.935,VALID,0.0,VALID,92.34,VALID,111.592,VALID,21.431,INVALID,360.0,VALID,0.0,
2019-01-08, 08:32:06,VALID,918.952,VALID,0.0,VALID,92.215,VALID,115.898,VALID,21.468,INVALID,360.0,VALID,0.0,
2019-01-08, 08:33:06,VALID,918.969,VALID,0.0,VALID,92.682,VALID,118.896,VALID,21.49,INVALID,360.0,VALID,0.0,
2019-01-08, 08:34:06,VALID,919.008,VALID,0.0,VALID,93.304,VALID,121.648,VALID,21.512,INVALID,360.0,VALID,0.0,
2019-01-08, 08:35:06,VALID,919.038,VALID,0.0,VALID,92.895,VALID,124.297,VALID,21.522,INVALID,360.0,VALID,0.0,
2019-01-08, 08:36:06,VALID,919.044,VALID,0.0,VALID,91.898,VALID,127.108,VALID,21.534,INVALID,360.0,VALID,0.0,
2019-01-08, 08:37:06,VALID,919.051,VALID,0.0,VALID,91.62,VALID,129.45,VALID,21.585,INVALID,360.0,VALID,0.0,
2019-01-08, 08:38:06,VALID,919.066,VALID,0.0,VALID,91.99,VALID,132.824,VALID,21.624,INVALID,360.0,VALID,0.0,
2019-01-08, 08:39:06,VALID,919.079,VALID,0.0,VALID,91.748,VALID,137.514,VALID,21.645,INVALID,360.0,VALID,0.0,
2019-01-08, 08:40:06,VALID,919.06,VALID,0.0,VALID,92.013,VALID,142.542,VALID,21.675,INVALID,360.0,VALID,0.0,
2019-01-08, 08:41:06,VALID,919.054,VALID,0.0,VALID,91.24,VALID,147.469,VALID,21.712,INVALID,360.0,VALID,0.0,
2019-01-08, 08:42:06,VALID,919.059,VALID,0.0,VALID,91.047,VALID,151.789,VALID,21.761,INVALID,360.0,VALID,0.0,
2019-01-08, 08:43:06,VALID,919.056,VALID,0.0,VALID,90.387,VALID,155.53,VALID,21.792,INVALID,360.0,VALID,0.0,
2019-01-08, 08:44:06,VALID,919.067,VALID,0.0,VALID,90.716,VALID,159.496,VALID,21.824,INVALID,360.0,VALID,0.0,
2019-01-08, 08:45:06,VALID,919.109,VALID,0.0,VALID,90.658,VALID,163.413,VALID,21.858,INVALID,360.0,VALID,0.0,
2019-01-08, 08:46:06,VALID,919.114,VALID,0.0,VALID,91.215,VALID,166.223,VALID,21.897,INVALID,360.0,VALID,0.0,
2019-01-08, 08:47:06,VALID,919.089,VALID,0.0,VALID,90.834,VALID,167.328,VALID,21.896,INVALID,360.0,VALID,0.0,
2019-01-08, 08:48:06,VALID,919.089,VALID,0.0,VALID,91.165,VALID,166.952,VALID,21.918,INVALID,360.0,VALID,0.0,
2019-01-08, 08:49:06,VALID,919.096,VALID,0.0,VALID,90.876,VALID,165.513,VALID,21.96,INVALID,360.0,VALID,0.0,
2019-01-08, 08:50:06,VALID,919.102,VALID,0.0,VALID,90.198,VALID,163.575,VALID,22.009,INVALID,360.0,VALID,0.0,
2019-01-08, 08:51:06,VALID,919.121,VALID,0.0,VALID,91.087,VALID,161.899,VALID,22.091,INVALID,360.0,VALID,0.0,
2019-01-08, 08:52:06,VALID,919.091,VALID,0.0,VALID,89.534,VALID,161.363,VALID,22.119,INVALID,360.0,VALID,0.0,
2019-01-08, 08:53:06,VALID,919.115,VALID,0.0,VALID,89.331,VALID,163.188,VALID,22.158,INVALID,360.0,VALID,0.0,
2019-01-08, 08:54:06,VALID,919.125,VALID,0.0,VALID,89.287,VALID,164.744,VALID,22.155,INVALID,360.0,VALID,0.0,
2019-01-08, 08:55:06,VALID,919.147,VALID,0.0,VALID,89.153,VALID,163.086,VALID,22.126,INVALID,360.0,VALID,0.0,
2019-01-08, 08:56:06,VALID,919.15,VALID,0.0,VALID,88.959,VALID,158.64,VALID,22.096,INVALID,360.0,VALID,0.0,
2019-01-08, 08:57:06,VALID,919.164,VALID,0.0,VALID,89.59,VALID,152.667,VALID,22.112,INVALID,360.0,VALID,0.0,
2019-01-08, 08:58:06,VALID,919.195,VALID,0.0,VALID,88.74,VALID,147.184,VALID,22.16,INVALID,360.0,VALID,0.0,
2019-01-08, 08:59:06,VALID,919.185,VALID,0.0,VALID,88.956,VALID,144.145,VALID,22.239,INVALID,360.0,VALID,0.0,
2019-01-08, 09:00:06,VALID,919.176,VALID,0.0,VALID,87.673,VALID,142.967,VALID,22.269,INVALID,360.0,VALID,0.0,
2019-01-08, 09:01:06,VALID,919.196,VALID,0.0,VALID,87.604,VALID,140.925,VALID,22.301,INVALID,360.0,VALID,0.0,
2019-01-08, 09:02:06,VALID,919.189,VALID,0.0,VALID,88.04,VALID,137.566,VALID,22.289,INVALID,360.0,VALID,0.0,
2019-01-08, 09:03:06,VALID,919.196,VALID,0.0,VALID,88.904,VALID,133.711,VALID,22.31,INVALID,360.0,VALID,0.0,
2019-01-08, 09:04:06,VALID,919.218,VALID,0.0,VALID,89.014,VALID,128.946,VALID,22.381,INVALID,360.0,VALID,0.0,
2019-01-08, 09:05:06,VALID,919.25,VALID,0.0,VALID,88.415,VALID,123.345,VALID,22.425,INVALID,360.0,VALID,0.0,
2019-01-08, 09:06:06,VALID,919.281,VALID,0.0,VALID,86.962,VALID,117.02,VALID,22.421,INVALID,360.0,VALID,0.0,
2019-01-08, 09:07:06,VALID,919.29,VALID,0.0,VALID,86.93,VALID,110.197,VALID,22.397,INVALID,360.0,VALID,0.0,
2019-01-08, 09:08:06,VALID,919.326,VALID,0.0,VALID,86.985,VALID,103.565,VALID,22.336,INVALID,360.0,VALID,0.0,
2019-01-08, 09:09:06,VALID,919.36,VALID,0.0,VALID,87.425,VALID,97.735,VALID,22.295,INVALID,360.0,VALID,0.0,
2019-01-08, 09:10:06,VALID,919.374,VALID,0.0,VALID,86.95,VALID,93.069,VALID,22.257,INVALID,360.0,VALID,0.0,
2019-01-08, 09:11:06,VALID,919.374,VALID,0.0,VALID,86.947,VALID,89.788,VALID,22.23,INVALID,360.0,VALID,0.0,
2019-01-08, 09:12:06,VALID,919.394,VALID,0.0,VALID,87.314,VALID,87.893,VALID,22.205,INVALID,360.0,VALID,0.0,
2019-01-08, 09:13:06,VALID,919.396,VALID,0.0,VALID,88.084,VALID,87.29,VALID,22.179,INVALID,360.0,VALID,0.0,
2019-01-08, 09:14:06,VALID,919.409,VALID,0.0,VALID,88.114,VALID,87.69,VALID,22.174,INVALID,360.0,VALID,0.0,
2019-01-08, 09:15:06,VALID,919.42,VALID,0.0,VALID,87.712,VALID,88.27,VALID,22.154,INVALID,360.0,VALID,0.0,
2019-01-08, 09:16:06,VALID,919.415,VALID,0.0,VALID,87.316,VALID,89.296,VALID,22.118,INVALID,360.0,VALID,0.0,
2019-01-08, 09:17:06,VALID,919.417,VALID,0.0,VALID,88.009,VALID,91.638,VALID,22.114,INVALID,360.0,VALID,0.0,
2019-01-08, 09:18:06,VALID,919.419,VALID,0.0,VALID,88.652,VALID,94.665,VALID,22.151,INVALID,360.0,VALID,0.0,
2019-01-08, 09:19:06,VALID,919.407,VALID,0.0,VALID,88.66,VALID,98.426,VALID,22.176,INVALID,360.0,VALID,0.0,
2019-01-08, 09:20:06,VALID,919.413,VALID,0.0,VALID,87.602,VALID,102.805,VALID,22.187,INVALID,360.0,VALID,0.0,
2019-01-08, 09:21:06,VALID,919.441,VALID,0.0,VALID,87.275,VALID,105.835,VALID,22.186,INVALID,360.0,VALID,0.0,
2019-01-08, 09:22:06,VALID,919.448,VALID,0.0,VALID,87.86,VALID,108.498,VALID,22.199,INVALID,360.0,VALID,0.0,
2019-01-08, 09:23:06,VALID,919.457,VALID,0.0,VALID,87.808,VALID,113.55,VALID,22.213,INVALID,360.0,VALID,0.0,
2019-01-08, 09:24:06,VALID,919.465,VALID,0.0,VALID,86.578,VALID,117.565,VALID,22.248,INVALID,360.0,VALID,0.0,
2019-01-08, 09:25:06,VALID,919.463,VALID,0.0,VALID,87.456,VALID,122.924,VALID,22.282,INVALID,360.0,VALID,0.0,
2019-01-08, 09:26:06,VALID,919.449,VALID,0.0,VALID,87.323,VALID,136.473,VALID,22.298,INVALID,360.0,VALID,0.0,
2019-01-08, 09:27:06,VALID,919.444,VALID,0.0,VALID,88.209,VALID,153.33,VALID,22.341,INVALID,360.0,VALID,0.0,
2019-01-08, 09:28:06,VALID,919.441,VALID,0.0,VALID,87.514,VALID,166.556,VALID,22.361,INVALID,360.0,VALID,0.0,
2019-01-08, 09:29:06,VALID,919.461,VALID,0.0,VALID,85.766,VALID,175.985,VALID,22.377,INVALID,360.0,VALID,0.0,
2019-01-08, 09:30:06,VALID,919.457,VALID,0.0,VALID,85.576,VALID,178.113,VALID,22.415,INVALID,360.0,VALID,0.0,
2019-01-08, 09:31:06,VALID,919.478,VALID,0.0,VALID,85.588,VALID,175.673,VALID,22.446,INVALID,360.0,VALID,0.0,
2019-01-08, 09:32:06,VALID,919.468,VALID,0.0,VALID,85.55,VALID,167.869,VALID,22.472,INVALID,360.0,VALID,0.0,
2019-01-08, 09:33:06,VALID,919.482,VALID,0.0,VALID,86.077,VALID,152.357,VALID,22.524,INVALID,360.0,VALID,0.0,
2019-01-08, 09:34:06,VALID,919.498,VALID,0.0,VALID,86.502,VALID,144.966,VALID,22.605,INVALID,360.0,VALID,0.0,
2019-01-08, 09:35:06,VALID,919.489,VALID,0.0,VALID,85.146,VALID,141.517,VALID,22.64,INVALID,360.0,VALID,0.0,
2019-01-08, 09:36:06,VALID,919.493,VALID,0.0,VALID,85.053,VALID,149.941,VALID,22.629,INVALID,360.0,VALID,0.0,
2019-01-08, 09:37:06,VALID,919.481,VALID,0.0,VALID,85.842,VALID,167.567,VALID,22.641,INVALID,360.0,VALID,0.0,
2019-01-08, 09:38:06,VALID,919.476,VALID,0.0,VALID,85.941,VALID,169.958,VALID,22.688,INVALID,360.0,VALID,0.0,
2019-01-08, 09:39:06,VALID,919.477,VALID,0.0,VALID,85.903,VALID,165.177,VALID,22.727,INVALID,360.0,VALID,0.0,
2019-01-08, 09:40:06,VALID,919.491,VALID,0.0,VALID,85.209,VALID,162.652,VALID,22.796,INVALID,360.0,VALID,0.0,
2019-01-08, 09:41:06,VALID,919.493,VALID,0.0,VALID,84.321,VALID,161.626,VALID,22.849,INVALID,360.0,VALID,0.0,
2019-01-08, 09:42:06,VALID,919.494,VALID,0.0,VALID,84.073,VALID,168.8,VALID,22.893,INVALID,360.0,VALID,0.0,
2019-01-08, 09:43:06,VALID,919.494,VALID,0.0,VALID,84.187,VALID,181.041,VALID,22.899,INVALID,360.0,VALID,0.0,
2019-01-08, 09:44:06,VALID,919.489,VALID,0.0,VALID,84.413,VALID,187.828,VALID,22.892,INVALID,360.0,VALID,0.0,
2019-01-08, 09:45:06,VALID,919.49,VALID,0.0,VALID,84.356,VALID,187.964,VALID,22.87,INVALID,360.0,VALID,0.0,
2019-01-08, 09:46:06,VALID,919.494,VALID,0.0,VALID,85.517,VALID,184.917,VALID,22.909,INVALID,360.0,VALID,0.0,
2019-01-08, 09:47:06,VALID,919.528,VALID,0.0,VALID,85.051,VALID,180.502,VALID,22.954,INVALID,360.0,VALID,0.0,
2019-01-08, 09:48:06,VALID,919.544,VALID,0.0,VALID,84.309,VALID,174.354,VALID,22.962,INVALID,360.0,VALID,0.0,
2019-01-08, 09:49:06,VALID,919.572,VALID,0.0,VALID,83.823,VALID,167.132,VALID,22.906,INVALID,360.0,VALID,0.0,
2019-01-08, 09:50:06,VALID,919.607,VALID,0.0,VALID,85.481,VALID,159.879,VALID,22.877,INVALID,360.0,VALID,0.0,
2019-01-08, 09:51:06,VALID,919.625,VALID,0.0,VALID,85.86,VALID,153.639,VALID,22.863,INVALID,360.0,VALID,0.0,
2019-01-08, 09:52:06,VALID,919.638,VALID,0.0,VALID,86.187,VALID,149.488,VALID,22.901,INVALID,360.0,VALID,0.0,
2019-01-08, 09:53:06,VALID,919.646,VALID,0.0,VALID,85.381,VALID,145.643,VALID,22.88,INVALID,360.0,VALID,0.0,
2019-01-08, 09:54:06,VALID,919.656,VALID,0.0,VALID,84.583,VALID,141.42,VALID,22.806,INVALID,360.0,VALID,0.0,
2019-01-08, 09:55:06,VALID,919.676,VALID,0.0,VALID,85.2,VALID,136.902,VALID,22.838,INVALID,360.0,VALID,0.0,
2019-01-08, 09:56:06,VALID,919.696,VALID,0.0,VALID,85.078,VALID,133.698,VALID,22.872,INVALID,360.0,VALID,0.0,
2019-01-08, 09:57:06,VALID,919.727,VALID,0.0,VALID,84.725,VALID,130.63,VALID,22.811,INVALID,360.0,VALID,0.0,
2019-01-08, 09:58:06,VALID,919.716,VALID,0.0,VALID,85.088,VALID,127.89,VALID,22.812,INVALID,360.0,VALID,0.0,
2019-01-08, 09:59:06,VALID,919.746,VALID,0.0,VALID,85.421,VALID,126.413,VALID,22.817,INVALID,360.0,VALID,0.0,
2019-01-08, 10:00:06,VALID,919.744,VALID,0.0,VALID,86.068,VALID,130.003,VALID,22.755,INVALID,360.0,VALID,0.0,
2019-01-08, 10:01:06,VALID,919.734,VALID,0.0,VALID,86.337,VALID,137.339,VALID,22.712,INVALID,360.0,VALID,0.0,
2019-01-08, 10:02:06,VALID,919.735,VALID,0.0,VALID,85.776,VALID,144.521,VALID,22.766,INVALID,360.0,VALID,0.0,
2019-01-08, 10:03:06,VALID,919.736,VALID,0.0,VALID,85.37,VALID,147.753,VALID,22.85,INVALID,360.0,VALID,0.0,
2019-01-08, 10:04:06,VALID,919.744,VALID,0.0,VALID,85.298,VALID,140.826,VALID,22.917,INVALID,360.0,VALID,0.0,
2019-01-08, 10:05:06,VALID,919.768,VALID,0.0,VALID,86.314,VALID,125.746,VALID,22.941,INVALID,360.0,VALID,0.0,
2019-01-08, 10:06:06,VALID,919.761,VALID,0.0,VALID,84.889,VALID,107.68,VALID,22.863,INVALID,360.0,VALID,0.0,
2019-01-08, 10:07:06,VALID,919.758,VALID,0.0,VALID,84.814,VALID,90.533,VALID,22.727,INVALID,360.0,VALID,0.0,
2019-01-08, 10:08:06,VALID,919.783,VALID,0.0,VALID,86.758,VALID,79.122,VALID,22.698,INVALID,360.0,VALID,0.0,
2019-01-08, 10:09:06,VALID,919.781,VALID,0.0,VALID,85.25,VALID,75.766,VALID,22.628,INVALID,360.0,VALID,0.0,
2019-01-08, 10:10:06,VALID,919.763,VALID,0.0,VALID,85.533,VALID,75.528,VALID,22.583,INVALID,360.0,VALID,0.0,
2019-01-08, 10:11:06,VALID,919.765,VALID,0.0,VALID,85.509,VALID,71.16,VALID,22.571,INVALID,360.0,VALID,0.0,
2019-01-08, 10:12:06,VALID,919.757,VALID,0.0,VALID,85.302,VALID,65.622,VALID,22.557,INVALID,360.0,VALID,0.0,
2019-01-08, 10:13:06,VALID,919.776,VALID,0.0,VALID,85.359,VALID,62.966,VALID,22.52,INVALID,360.0,VALID,0.0,
2019-01-08, 10:14:06,VALID,919.779,VALID,0.0,VALID,84.657,VALID,63.07,VALID,22.472,INVALID,360.0,VALID,0.0,
2019-01-08, 10:15:06,VALID,919.798,VALID,0.0,VALID,85.663,VALID,63.65,VALID,22.451,INVALID,360.0,VALID,0.0,
2019-01-08, 10:16:06,VALID,919.797,VALID,0.0,VALID,85.914,VALID,65.862,VALID,22.407,INVALID,360.0,VALID,0.0,
2019-01-08, 10:17:06,VALID,919.809,VALID,0.0,VALID,86.577,VALID,70.522,VALID,22.357,INVALID,360.0,VALID,0.0,
2019-01-08, 10:18:06,VALID,919.806,VALID,0.0,VALID,87.039,VALID,77.078,VALID,22.344,INVALID,360.0,VALID,0.0,
2019-01-08, 10:19:06,VALID,919.793,VALID,0.0,VALID,87.406,VALID,83.162,VALID,22.347,INVALID,360.0,VALID,0.0,
2019-01-08, 10:20:06,VALID,919.786,VALID,0.0,VALID,85.74,VALID,85.917,VALID,22.329,INVALID,360.0,VALID,0.0,
2019-01-08, 10:21:06,VALID,919.821,VALID,0.0,VALID,85.639,VALID,84.146,VALID,22.342,INVALID,360.0,VALID,0.0,
2019-01-08, 10:22:06,VALID,919.827,VALID,0.0,VALID,86.896,VALID,81.946,VALID,22.361,INVALID,360.0,VALID,0.0,
2019-01-08, 10:23:06,VALID,919.827,VALID,0.0,VALID,87.532,VALID,80.841,VALID,22.368,INVALID,360.0,VALID,0.0,
2019-01-08, 10:24:06,VALID,919.84,VALID,0.0,VALID,86.977,VALID,78.854,VALID,22.332,INVALID,360.0,VALID,0.0,
2019-01-08, 10:25:06,VALID,919.854,VALID,0.0,VALID,88.045,VALID,75.136,VALID,22.306,INVALID,360.0,VALID,0.0,
2019-01-08, 10:26:06,VALID,919.867,VALID,0.0,VALID,88.064,VALID,71.566,VALID,22.263,INVALID,360.0,VALID,0.0,
2019-01-08, 10:27:06,VALID,919.878,VALID,0.0,VALID,88.356,VALID,68.31,VALID,22.218,INVALID,360.0,VALID,0.0,
2019-01-08, 10:28:06,VALID,919.885,VALID,0.0,VALID,89.04,VALID,65.386,VALID,22.193,INVALID,360.0,VALID,0.0,
2019-01-08, 10:29:06,VALID,919.899,VALID,0.0,VALID,89.037,VALID,63.232,VALID,22.159,INVALID,360.0,VALID,0.0,
2019-01-08, 10:30:06,VALID,919.89,VALID,0.0,VALID,88.503,VALID,62.123,VALID,22.109,INVALID,360.0,VALID,0.0,
2019-01-08, 10:31:06,VALID,919.885,VALID,0.0,VALID,87.009,VALID,60.631,VALID,22.07,INVALID,360.0,VALID,0.0,
2019-01-08, 10:32:06,VALID,919.875,VALID,0.0,VALID,87.995,VALID,57.265,VALID,22.067,INVALID,360.0,VALID,0.0,
2019-01-08, 10:33:06,VALID,919.857,VALID,0.0,VALID,88.336,VALID,54.053,VALID,22.045,INVALID,360.0,VALID,0.0,
2019-01-08, 10:34:06,VALID,919.873,VALID,0.0,VALID,87.335,VALID,52.187,VALID,21.99,INVALID,360.0,VALID,0.0,
2019-01-08, 10:35:06,VALID,919.865,VALID,0.0,VALID,86.531,VALID,49.658,VALID,21.98,INVALID,360.0,VALID,0.0,
2019-01-08, 10:36:06,VALID,919.839,VALID,0.0,VALID,86.981,VALID,47.076,VALID,21.967,INVALID,360.0,VALID,0.0,